User: anonymous   Login
Location: Charlottesville
(38.0290°N, 78.4770°W)
Time: 17:37:14
(UTC-04:00)
Language:

XW-2F - Orbit

View from above orbital plane
View from above orbital plane
View from above satellite
View from above satellite

Ground track
Ground track

The orbit data is extracted from the following two-line orbital elements,

1 40910U 15049M   18265.93160833 +.00000859 +00000-0 +47110-4 0  9997
2 40910 097.4601 268.8333 0016322 048.3476 311.9152 15.16732847166393
Epoch (UTC): 22 September 2018 22:21:30
Eccentricity: 0.0016322
inclination: 97.4601°
perigee height: 504 km
apogee height: 527 km
right ascension of ascending node: 268.8333°
argument of perigee: 48.3476°
revolutions per day: 15.16732847
mean anomaly at epoch: 311.9152°
orbit number at epoch: 16639

The dashed part of the orbit path shows where the satellite is in the earth's shadow,  

DLR